Weather History for London-Corbin, KY

Change the Weather History Date:

Thursday, July 11, 2013

  Actual Average Record
Temperature  
Mean Temperature 76 °F 76 °F  
Max Temperature 83 °F 87 °F 92 °F (2011)
Min Temperature 68 °F 66 °F 48 °F (1961)
Degree Days  
Heating Degree Days 0 0  
Month to date heating degree days 0 0  
Since 1 June heating degree days 0 9  
Since 1 July heating degree days 0 0  
Cooling Degree Days 11 11  
Month to date cooling degree days 101 121  
Year to date cooling degree days 432  
Since 1 June cooling degree days 332  
Growing Degree Days 26 (Base 50)    
Moisture  
Dew Point 67 °F    
Average Humidity 79    
Maximum Humidity 100    
Minimum Humidity 58    
Precipitation  
Precipitation 0.00 in 0.12 in 1.16 in (2000)
Month to date precipitation 5.16 1.46  
Year to date precipitation 35.41  
Sea Level Pressure  
Sea Level Pressure 29.97 in    
Wind  
Wind Speed 3 mph (North)    
Max Wind Speed 16 mph    
Max Gust Speed 22 mph    
Visibility 10 miles    
Events      
T = Trace of Precipitation, MM = Missing Value Source: NWS Daily Summary

Daily Weather History Graph

Daily Weather History Graph

Search for Another Location

Airport:

Trip Planner

Search our weather history database for the weather conditions in past years. The results will help you decide how hot, cold, wet, or windy it might be!

Date:

Astronomy

Jul. 11, 2013 Rise Set
Actual Time 6:25 AM EDT 8:57 PM EDT
Civil Twilight 5:55 AM EDT 9:27 PM EDT
Nautical Twilight 5:17 AM EDT 10:05 PM EDT
Astronomical Twilight 4:36 AM EDT 10:46 PM EDT
Moon 9:37 AM EDT (7/11) 10:44 PM EDT (7/11)
Length of Visible Light 15h 32m
Length of Day
14h 31m
Waxing Crescent, 10% of the Moon is Illuminated
Jul 11
Waxing Crescent
Jul 15
First Quarter
Jul 22
Full
Jul 29
Last Quarter
Aug 6
New

Hourly Weather History & Observations

Time (EDT) Temp. Heat Index Dew Point Humidity Pressure Visibility Wind Dir Wind Speed Gust Speed Precip Events Conditions
12:53 AM 70.0 °F - 69.1 °F 97% 29.96 in 10.0 mi Calm Calm - N/A   Mostly Cloudy
1:15 AM 69.8 °F - 68.0 °F 94% 30.00 in 10.0 mi Calm Calm - N/A   Mostly Cloudy
1:23 AM 69.8 °F - 69.8 °F 100% 30.00 in 10.0 mi Calm Calm - N/A   Mostly Cloudy
1:53 AM 70.0 °F - 68.0 °F 93% 29.95 in 10.0 mi Calm Calm - N/A   Overcast
2:53 AM 70.0 °F - 68.0 °F 93% 29.95 in 10.0 mi Calm Calm - N/A   Overcast
3:40 AM 69.8 °F - 68.0 °F 94% 29.99 in 10.0 mi Calm Calm - N/A   Overcast
3:53 AM 69.1 °F - 68.0 °F 96% 29.95 in 9.0 mi Calm Calm - N/A   Mostly Cloudy
4:53 AM 70.0 °F - 68.0 °F 93% 29.95 in 8.0 mi Calm Calm - N/A   Overcast
5:53 AM 70.0 °F - 68.0 °F 93% 29.96 in 10.0 mi West 4.6 mph - N/A   Overcast
6:24 AM 69.8 °F - 68.0 °F 94% 30.00 in 10.0 mi Calm Calm - N/A   Overcast
6:53 AM 70.0 °F - 68.0 °F 93% 29.97 in 10.0 mi Calm Calm - N/A   Overcast
7:53 AM 70.0 °F - 66.9 °F 90% 29.98 in 10.0 mi WSW 3.5 mph - N/A   Overcast
8:53 AM 71.1 °F - 68.0 °F 90% 29.97 in 10.0 mi Calm Calm - N/A   Overcast
9:06 AM 71.6 °F - 66.2 °F 83% 30.01 in 10.0 mi West 3.5 mph - N/A   Overcast
9:44 AM 71.6 °F - 68.0 °F 88% 30.01 in 10.0 mi West 3.5 mph - N/A   Overcast
9:53 AM 72.0 °F - 68.0 °F 87% 29.99 in 10.0 mi WNW 3.5 mph - N/A   Overcast
10:53 AM 73.0 °F - 68.0 °F 84% 29.98 in 10.0 mi NE 3.5 mph - N/A   Overcast
11:04 AM 73.4 °F - 66.2 °F 78% 30.01 in 10.0 mi NNE 4.6 mph - N/A   Overcast
11:53 AM 73.0 °F - 66.9 °F 81% 29.99 in 10.0 mi Calm Calm - N/A   Overcast
12:43 PM 73.4 °F - 68.0 °F 83% 30.02 in 10.0 mi NNE 4.6 mph - N/A   Overcast
12:53 PM 73.0 °F - 68.0 °F 84% 29.99 in 10.0 mi NE 3.5 mph - N/A   Overcast
1:02 PM 73.4 °F - 68.0 °F 83% 30.02 in 10.0 mi Calm Calm - N/A   Overcast
1:53 PM 77.0 °F - 68.0 °F 74% 29.97 in 10.0 mi Calm Calm - N/A   Mostly Cloudy
2:53 PM 78.1 °F - 68.0 °F 71% 29.96 in 10.0 mi Calm Calm - N/A   Mostly Cloudy
3:12 PM 80.6 °F 83.2 °F 68.0 °F 65% 29.99 in 10.0 mi NNE 5.8 mph - N/A   Mostly Cloudy
3:25 PM 78.8 °F - 66.2 °F 65% 29.98 in 10.0 mi East 3.5 mph - N/A   Mostly Cloudy
3:53 PM 82.0 °F 84.9 °F 68.0 °F 62% 29.94 in 10.0 mi Variable 3.5 mph - N/A   Partly Cloudy
4:53 PM 79.0 °F - 68.0 °F 69% 29.92 in 10.0 mi Calm Calm - N/A   Mostly Cloudy
5:53 PM 82.0 °F 84.9 °F 68.0 °F 62% 29.91 in 10.0 mi Calm Calm - N/A   Scattered Clouds
6:53 PM 82.0 °F 84.5 °F 66.9 °F 60% 29.91 in 10.0 mi WNW 4.6 mph - N/A   Scattered Clouds
7:53 PM 79.0 °F - 66.0 °F 64% 29.91 in 10.0 mi NNE 13.8 mph 21.9 mph N/A   Mostly Cloudy
8:53 PM 75.0 °F - 64.0 °F 69% 29.93 in 10.0 mi North 9.2 mph - N/A   Mostly Cloudy
9:53 PM 72.0 °F - 64.9 °F 78% 29.93 in 10.0 mi NNE 5.8 mph - N/A   Clear
10:53 PM 70.0 °F - 64.9 °F 84% 29.96 in 10.0 mi NE 6.9 mph - N/A   Mostly Cloudy
11:53 PM 69.1 °F - 64.9 °F 87% 29.96 in 10.0 mi NE 3.5 mph - N/A   Clear